This demonstration page uses our WeatherBlox Daily Observations layout. Learn more.

Left ArrowRight Arrow

41.12389, -100.76542

Hourly Observations for December 20, 2016

Temp ( °F °C ) Dew Point ( °F °C ) Humidity (%) Winds ( mph kmh ) Pressure ( in mb ) Visibility ( mi km ) Precip ( " mm )
12:53 am 00:53 Clear 26 -3.3 17 -8.3 69 69 W 3 6 30.16 1021 10 16 0.00 0.00
1:53 am 01:53 Clear 24 -4.4 17 -8.3 75 75 WNW 8 13 30.16 1022 10 16 0.00 0.00
2:53 am 02:53 Clear 29 -1.7 19 -7.2 66 66 NNW 8 13 30.20 1023 10 16 0.00 0.00
3:53 am 03:53 Clear 32 0 19 -7.2 59 59 NW 10 17 30.24 1024 10 16 0.00 0.00
4:53 am 04:53 Clear 28 -2.2 18 -7.8 66 66 NW 6 9 30.27 1025 10 16 0.00 0.00
5:53 am 05:53 Clear 23 -5 17 -8.3 78 78 S 5 7 30.29 1026 10 16 0.00 0.00
6:53 am 06:53 Clear 22 -5.6 17 -8.3 82 82 N 3 6 30.32 1027 10 16 0.00 0.00
7:53 am 07:53 Clear 19 -7.2 15 -9.4 84 84 Calm 30.34 1027 10 16 0.00 0.00
8:53 am 08:53 Sunny 21 -6.1 16 -8.9 81 81 Calm 30.33 1027 10 16 0.00 0.00
9:53 am 09:53 Sunny 35 1.7 22 -5.6 59 59 Calm 30.32 1027 10 16 0.00 0.00
10:53 am 10:53 Sunny 39 3.9 22 -5.6 50 50 W 3 6 30.35 1028 10 16 0.00 0.00
11:53 am 11:53 Sunny 46 7.8 21 -6.1 37 37 SSW 10 17 30.31 1026 10 16 0.00 0.00
12:53 pm 12:53 Sunny 48 8.9 21 -6.1 34 34 SSW 9 15 30.27 1025 10 16 0.00 0.00
1:53 pm 13:53 Sunny 51 10.6 20 -6.7 29 29 S 12 19 30.21 1023 10 16 0.00 0.00
2:53 pm 14:53 Sunny 48 8.9 20 -6.7 33 33 SSW 9 15 30.17 1022 10 16 0.00 0.00
3:53 pm 15:53 Sunny 48 8.9 21 -6.1 34 34 SSE 9 15 30.13 1020 10 16 0.00 0.00
4:53 pm 16:53 Sunny 45 7.2 20 -6.7 37 37 S 8 13 30.13 1020 10 16 0.00 0.00
5:53 pm 17:53 Clear 43 6.1 20 -6.7 40 40 SSE 9 15 30.13 1020 10 16 0.00 0.00
6:53 pm 18:53 Clear 42 5.6 21 -6.1 43 43 S 8 13 30.11 1020 10 16 0.00 0.00
7:53 pm 19:53 Clear 40 4.4 21 -6.1 47 47 S 7 11 30.11 1020 10 16 0.00 0.00
8:53 pm 20:53 Clear 39 3.9 22 -5.6 50 50 S 8 13 30.09 1019 10 16 0.00 0.00
9:53 pm 21:53 Clear 38 3.3 22 -5.6 52 52 S 5 7 30.04 1017 10 16 0.00 0.00
10:53 pm 22:53 Clear 37 2.8 23 -5 57 57 S 9 15 30.03 1017 10 16 0.00 0.00
11:53 pm 23:53 Clear 34 1.1 23 -5 64 64 S 5 7 29.98 1015 10 16 0.00 0.00

Powered by AerisWeather